STARLINK-37045, 68074

Orbit data source: Space-Track

STARLINK-37045, 68074 is a payload satellite owned by SpaceX/Seattle (US) in LEO that was launched on Wed, 04 Mar 2026 UTC via an FALCON 9 launch vehicle from the Air Force Eastern Test Range (AFETR). Payload-class satellites include a variety of spacecraft equipped with specific instruments for various scientific and technological missions. These include communications satellites like Starlink; space stations such as the ISS; scientific satellites like the Hubble; Earth observation satellites from companies like Planet Labs, Umbra, and HawkEye 360; GPS; miniature CubeSats for education and research; and military/defense satellites.

Loading next visibility...
Identifier
68074, 2026-042F
Orbit
LEO
Country
Flag of USUS
Related business
Manufacturer
SpaceX/Seattle
Mission
Operational Commercial Communications
Bus & Motor
STARLINK V2MO, Unknown motor
Mass
575 kg wet, ~530 kg dry
Launch date (UTC)
2026-03-04 (2 months ago)
Launch vehicle
FALCON 9
Launch site
Air Force Eastern Test Range (AFETR)
Object type
Payload
Rocket body
Debris
Shape & HBR
Box + 2 Pan, 17.7 m
Radar Cross Section
36.964 m²

Expand to show TLE details & history
Last TLE update: 9 hours ago

TLE from 9 hours ago
0 STARLINK-37045
1 68074U 26042F   26119.22812722  .00047857  00000-0  86260-3 0  9990
2 68074  53.1592 304.6453 0000642  82.4237 277.6844 15.49330832 10035
Epoch: 2026-04-29T05:28Z
TLE epoch observation values (Epoch: 2026-04-29T05:28:30.191Z)
Latitude
-0.00012°
Longitude
5.32731°
Altitude
419.531 km
Speed
7.661 km/s
True Right ascension
20h 18m 34s
True Declination
0° 00' 00"
Sunlit
Object was in daylight at epoch
Visualization orbit readout
Latitude
Unknown
Longitude
Unknown
Altitude
Unknown
Speed
Unknown
Apparent Right ascension
Unknown
Apparent Declination
Unknown
Sunlit
N/A
Visualization observer readout
Local Sidereal Time
21:51:14
Azimuth
Unknown
Elevation
Unknown
Doppler factor
Unknown
Orbital elements
Apogee altitude
419.377 km
Perigee altitude
418.505 km
Semi-major axis
6,797.078 km
Eccentricity
0.00006
Inclination
53.1592°
RAAN
304.6453°
Arg. of periapsis
82.4237°
True anomaly
277.67711°
Mean anomaly
277.6844°
Eccentric anomaly
277.68075°
Mean motion
3.87311 °/min
Orbital period
92.95 mins
BSTAR
0.0008626
Loading maneuver chart data...
Computing Atmospheric mass density...
Loading historical data...
Loading historical data...
Loading historical data...
Loading historical data...
Loading historical data...
Loading historical data...
Loading historical data...

Documentation

Showing up to 5 results
|